TimeEDT,TemperatureF,Dew PointF,Humidity,Sea Level PressureIn,VisibilityMPH,Wind Direction,Wind SpeedMPH,Gust SpeedMPH,PrecipitationIn,Events,Conditions,WindDirDegrees,DateUTC
12:11 AM,68.0,55.4,64,30.01,10.0,WSW,10.4,-,N/A,,Scattered Clouds,250,2012-10-05 04:11:00
12:31 AM,68.0,55.4,64,30.01,10.0,WSW,9.2,-,N/A,,Scattered Clouds,240,2012-10-05 04:31:00
12:51 AM,66.2,55.4,68,30.01,10.0,WSW,5.8,-,N/A,,Scattered Clouds,250,2012-10-05 04:51:00
1:11 AM,66.2,55.4,68,30.02,10.0,WSW,6.9,-,N/A,,Mostly Cloudy,250,2012-10-05 05:11:00
1:31 AM,64.4,55.4,73,30.02,10.0,West,4.6,-,N/A,,Mostly Cloudy,280,2012-10-05 05:31:00
1:51 AM,64.4,55.4,73,30.02,10.0,West,9.2,-,N/A,,Scattered Clouds,270,2012-10-05 05:51:00
2:12 AM,64.4,57.2,77,30.02,10.0,West,4.6,-,N/A,,Scattered Clouds,270,2012-10-05 06:12:00
2:32 AM,64.4,57.2,77,30.02,10.0,WSW,6.9,-,N/A,,Mostly Cloudy,250,2012-10-05 06:32:00
2:52 AM,64.4,57.2,77,30.02,10.0,West,5.8,-,N/A,,Mostly Cloudy,260,2012-10-05 06:52:00
3:12 AM,64.4,57.2,77,30.01,10.0,West,4.6,-,N/A,,Overcast,270,2012-10-05 07:12:00
3:32 AM,64.4,55.4,73,30.01,10.0,West,8.1,-,N/A,,Overcast,260,2012-10-05 07:32:00
3:52 AM,64.4,55.4,73,30.02,10.0,West,5.8,-,N/A,,Overcast,260,2012-10-05 07:52:00
4:15 AM,64.4,55.4,73,30.02,10.0,West,9.2,-,N/A,,Overcast,270,2012-10-05 08:15:00
4:35 AM,62.6,55.4,77,30.02,10.0,West,11.5,-,N/A,,Overcast,270,2012-10-05 08:35:00
4:55 AM,62.6,53.6,72,30.03,10.0,West,13.8,-,N/A,,Overcast,280,2012-10-05 08:55:00
5:15 AM,60.8,51.8,72,30.04,10.0,WNW,13.8,19.6,N/A,,Overcast,290,2012-10-05 09:15:00
5:35 AM,59.0,51.8,77,30.05,10.0,WNW,11.5,-,N/A,,Overcast,290,2012-10-05 09:35:00
5:55 AM,59.0,50.0,72,30.06,10.0,West,10.4,-,N/A,,Overcast,280,2012-10-05 09:55:00
6:15 AM,57.2,48.2,72,30.06,10.0,West,11.5,-,N/A,,Overcast,270,2012-10-05 10:15:00
6:35 AM,57.2,48.2,72,30.05,10.0,West,11.5,-,N/A,,Overcast,270,2012-10-05 10:35:00
6:55 AM,57.2,48.2,72,30.05,10.0,West,8.1,-,N/A,,Overcast,270,2012-10-05 10:55:00
7:16 AM,57.2,48.2,72,30.06,10.0,West,11.5,-,N/A,,Mostly Cloudy,270,2012-10-05 11:16:00
7:31 AM,57.2,48.2,72,30.06,10.0,West,8.1,-,N/A,,Scattered Clouds,260,2012-10-05 11:31:00
7:51 AM,55.4,46.4,72,30.07,10.0,West,10.4,-,N/A,,Clear,270,2012-10-05 11:51:00
8:11 AM,55.4,48.2,77,30.06,10.0,WSW,8.1,-,N/A,,Clear,240,2012-10-05 12:11:00
8:31 AM,55.4,48.2,77,30.07,10.0,WSW,4.6,-,N/A,,Mostly Cloudy,250,2012-10-05 12:31:00
8:51 AM,55.4,48.2,77,30.07,10.0,West,5.8,-,N/A,,Mostly Cloudy,260,2012-10-05 12:51:00
9:11 AM,55.4,48.2,77,30.07,10.0,West,8.1,-,N/A,,Scattered Clouds,260,2012-10-05 13:11:00
9:31 AM,55.4,48.2,77,30.07,10.0,West,10.4,-,N/A,,Scattered Clouds,270,2012-10-05 13:31:00
9:51 AM,55.4,48.2,77,30.06,10.0,West,8.1,-,N/A,,Scattered Clouds,260,2012-10-05 13:51:00
10:12 AM,57.2,48.2,72,30.07,10.0,WSW,10.4,-,N/A,,Mostly Cloudy,250,2012-10-05 14:12:00
10:32 AM,57.2,48.2,72,30.06,10.0,West,8.1,-,N/A,,Overcast,270,2012-10-05 14:32:00
10:52 AM,57.2,46.4,67,30.06,10.0,West,6.9,-,N/A,,Overcast,260,2012-10-05 14:52:00
11:12 AM,57.2,46.4,67,30.04,10.0,WSW,6.9,-,N/A,,Scattered Clouds,240,2012-10-05 15:12:00
11:32 AM,57.2,46.4,67,30.05,10.0,West,10.4,17.3,N/A,,Mostly Cloudy,270,2012-10-05 15:32:00
11:52 AM,57.2,46.4,67,30.05,10.0,West,9.2,-,N/A,,Overcast,270,2012-10-05 15:52:00
12:32 PM,57.2,44.6,63,30.05,10.0,WSW,10.4,-,N/A,,Overcast,250,2012-10-05 16:32:00
12:52 PM,57.2,46.4,67,30.05,10.0,WSW,9.2,-,N/A,,Overcast,250,2012-10-05 16:52:00
1:12 PM,57.2,44.6,63,30.04,10.0,WSW,10.4,-,N/A,,Overcast,250,2012-10-05 17:12:00
1:33 PM,57.2,46.4,67,30.04,10.0,WSW,6.9,-,N/A,,Overcast,240,2012-10-05 17:33:00
1:53 PM,57.2,44.6,63,30.04,10.0,WSW,12.7,-,N/A,,Overcast,240,2012-10-05 17:53:00
2:33 PM,55.4,44.6,67,30.02,10.0,WSW,10.4,-,N/A,,Overcast,240,2012-10-05 18:33:00
2:53 PM,55.4,44.6,67,30.01,10.0,WSW,11.5,-,N/A,,Overcast,250,2012-10-05 18:53:00
3:13 PM,55.4,44.6,67,30.01,10.0,WSW,8.1,-,N/A,,Overcast,240,2012-10-05 19:13:00
3:33 PM,55.4,44.6,67,30.00,10.0,WSW,10.4,-,N/A,,Overcast,250,2012-10-05 19:33:00
3:53 PM,55.4,44.6,67,29.99,10.0,West,8.1,17.3,N/A,,Overcast,270,2012-10-05 19:53:00
4:13 PM,55.4,44.6,67,29.99,10.0,West,10.4,-,N/A,,Overcast,260,2012-10-05 20:13:00
4:34 PM,55.4,44.6,67,29.98,10.0,WSW,10.4,-,N/A,,Overcast,250,2012-10-05 20:34:00
4:54 PM,53.6,44.6,72,29.99,10.0,WSW,9.2,-,N/A,Rain,Light Rain,250,2012-10-05 20:54:00
5:14 PM,53.6,44.6,72,30.00,10.0,WSW,9.2,-,N/A,Rain,Light Rain,250,2012-10-05 21:14:00
5:34 PM,53.6,44.6,72,29.98,10.0,West,8.1,-,N/A,,Overcast,260,2012-10-05 21:34:00
5:54 PM,53.6,44.6,72,30.00,10.0,WSW,8.1,-,N/A,,Overcast,250,2012-10-05 21:54:00
6:14 PM,51.8,46.4,82,29.99,10.0,West,6.9,-,N/A,Rain,Light Rain,260,2012-10-05 22:14:00
6:35 PM,51.8,46.4,82,30.00,10.0,West,5.8,-,N/A,,Light Drizzle,280,2012-10-05 22:35:00
6:55 PM,50.0,44.6,82,30.00,10.0,West,4.6,-,N/A,Rain,Light Rain,280,2012-10-05 22:55:00
7:15 PM,48.2,46.4,93,30.01,7.0,West,4.6,-,N/A,Rain,Rain,270,2012-10-05 23:15:00
7:35 PM,48.2,46.4,93,30.01,10.0,West,5.8,-,N/A,Rain,Light Rain,260,2012-10-05 23:35:00
7:55 PM,48.2,44.6,87,30.00,2.5,WNW,10.4,-,N/A,Rain,Light Rain,290,2012-10-05 23:55:00
8:15 PM,46.4,42.8,87,30.00,10.0,WNW,5.8,-,N/A,Rain,Rain,300,2012-10-06 00:15:00
8:35 PM,46.4,42.8,87,29.99,10.0,NW,5.8,-,N/A,Rain,Rain,310,2012-10-06 00:35:00
8:55 PM,46.4,42.8,87,29.99,10.0,WNW,6.9,-,N/A,Rain,Light Rain,300,2012-10-06 00:55:00
9:15 PM,46.4,42.8,87,30.00,10.0,WSW,5.8,-,N/A,Rain,Rain,250,2012-10-06 01:15:00
9:35 PM,44.6,42.8,93,30.00,10.0,West,8.1,-,N/A,Rain,Light Rain,260,2012-10-06 01:35:00
9:56 PM,44.6,42.8,93,30.01,10.0,West,8.1,-,N/A,Rain,Light Rain,260,2012-10-06 01:56:00
10:16 PM,44.6,42.8,93,30.00,10.0,WSW,6.9,-,N/A,Rain,Light Rain,250,2012-10-06 02:16:00
10:31 PM,44.6,42.8,93,29.99,10.0,WSW,5.8,-,N/A,Rain,Light Rain,250,2012-10-06 02:31:00
10:51 PM,44.6,41.0,87,29.99,10.0,WSW,3.5,-,N/A,Rain,Light Rain,250,2012-10-06 02:51:00
11:31 PM,42.8,42.8,100,30.00,7.0,SW,5.8,-,N/A,Rain,Light Rain,220,2012-10-06 03:31:00
11:51 PM,44.6,42.8,93,29.97,10.0,WSW,4.6,-,N/A,Rain,Light Rain,240,2012-10-06 03:51:00